Date String (YYYY-MM-DD hh:mm:ss) UTC,Instrument flags,Ambient pressure (hPa),Sample flow (lpm),Bypass flow (lpm),Sample temperature (°C),Ambient temperature (°C),ASC tube jacket temperature (°C),LED temperature (°C),Box temperature (°C),Sample RH (%),Span deviation,Mass concentration (μg/m³),Mass concentration (μg/m³),Mass concentration (μg/m³)
DateTimeUTC,F1_M11,P_M11,Q1_M11,Q2_M11,T1_M11,T2_M11,T3_M11,T4_M11,T5_M11,U1_M11,ZSPAN_M11,X2_M11,X0_M11,X1_M11
2022-11-14 23:00:00,,0825.5,5.00,0.00,23.4,21.9,00.0,32.4,25.2,07.9,0002.6,0005.96,0011.79,0005.16
2022-11-14 23:01:00,,0825.4,4.99,0.00,23.4,21.9,00.0,32.4,25.2,07.9,0003.1,0005.94,0011.89,0005.15
2022-11-14 23:02:00,,0825.5,5.01,0.00,23.4,21.9,00.0,32.4,25.2,07.9,0003.3,0005.95,0012.06,0005.17
2022-11-14 23:03:00,,0825.5,5.00,0.00,23.4,21.9,00.0,32.3,25.2,07.9,0003.5,0005.98,0011.94,0005.19
2022-11-14 23:04:00,,0825.5,4.99,0.00,23.4,21.9,00.0,32.3,25.2,07.9,0003.5,0005.96,0012.38,0005.20
2022-11-14 23:05:00,,0825.5,5.00,0.00,23.4,21.9,00.0,32.3,25.2,07.8,0003.7,0006.18,0013.77,0005.33
2022-11-14 23:06:00,,0825.6,4.99,0.00,23.4,22.0,00.0,32.3,25.2,07.8,0004.0,0006.55,0014.51,0005.57
2022-11-14 23:07:00,,0825.6,5.00,0.00,23.4,22.0,00.0,32.3,25.2,07.8,0004.0,0006.74,0014.31,0005.69
2022-11-14 23:08:00,,0825.6,5.01,0.00,23.4,21.9,00.0,32.3,25.2,07.8,0004.1,0006.73,0014.65,0005.68
2022-11-14 23:09:00,,0825.6,4.99,0.00,23.4,21.9,00.0,32.3,25.2,07.8,0004.1,0006.85,0015.04,0005.77
2022-11-14 23:10:00,,0825.6,5.01,0.00,23.3,21.8,00.0,32.3,25.1,07.8,0004.1,0006.51,0014.35,0005.58
2022-11-14 23:11:00,,0825.6,5.00,0.00,23.3,21.7,00.0,32.3,25.1,07.8,0004.0,0006.42,0014.27,0005.53
2022-11-14 23:12:00,,0825.6,4.99,0.00,23.3,21.7,00.0,32.3,25.1,07.8,0003.9,0006.40,0014.07,0005.52
2022-11-14 23:13:00,,0825.7,5.01,0.00,23.3,21.6,00.0,32.3,25.1,07.8,0003.8,0006.38,0014.23,0005.51
2022-11-14 23:14:00,,0825.7,4.98,0.00,23.3,21.6,00.0,32.3,25.1,07.8,0003.7,0006.36,0014.56,0005.47
2022-11-14 23:15:00,,0825.6,5.01,0.00,23.3,21.6,00.0,32.2,25.1,07.8,0003.7,0006.31,0013.61,0005.42
2022-11-14 23:16:00,,0825.6,5.01,0.00,23.2,21.6,00.0,32.2,25.1,07.8,0003.7,0006.01,0012.00,0005.27
2022-11-14 23:17:00,,0825.7,5.00,0.00,23.2,21.7,00.0,32.2,25.1,07.8,0003.6,0006.00,0011.96,0005.20
2022-11-14 23:18:00,,0825.7,4.99,0.00,23.2,21.7,00.0,32.2,25.1,07.8,0003.7,0005.90,0011.60,0005.11
2022-11-14 23:19:00,,0825.6,5.02,0.00,23.2,21.7,00.0,32.2,25.0,07.8,0003.8,0006.26,0012.45,0005.30
2022-11-14 23:20:00,,0825.7,5.00,0.00,23.2,21.7,00.0,32.2,25.1,07.8,0004.3,0006.74,0013.20,0005.53
2022-11-14 23:21:00,,0825.6,4.99,0.00,23.2,21.7,00.0,32.2,25.1,07.8,0004.5,0007.27,0014.29,0005.82
2022-11-14 23:22:00,,0825.7,4.99,0.00,23.2,21.6,00.0,32.2,25.0,07.8,0004.4,0007.50,0014.69,0005.97
2022-11-14 23:23:00,,0825.7,5.00,0.00,23.2,21.6,00.0,32.2,25.0,07.8,0004.2,0007.51,0014.72,0005.99
2022-11-14 23:24:00,,0825.7,5.00,0.00,23.2,21.6,00.0,32.1,25.0,07.8,0004.1,0007.53,0014.94,0006.00
2022-11-14 23:25:00,,0825.7,5.02,0.00,23.2,21.5,00.0,32.1,25.0,07.8,0004.1,0007.56,0014.52,0006.01
2022-11-14 23:26:00,,0825.7,4.99,0.00,23.1,21.5,00.0,32.1,25.0,07.9,0004.1,0007.58,0014.85,0006.02
2022-11-14 23:27:00,,0825.7,5.00,0.00,23.1,21.5,00.0,32.1,25.0,07.9,0004.2,0007.65,0015.29,0006.03
2022-11-14 23:28:00,,0825.7,5.01,0.00,23.1,21.6,00.0,32.1,25.0,07.9,0004.2,0007.46,0015.06,0005.93
2022-11-14 23:29:00,,0825.7,4.98,0.00,23.1,21.6,00.0,32.1,24.9,07.9,0003.9,0007.12,0014.24,0005.75
2022-11-14 23:30:00,,0825.7,5.02,0.00,23.1,21.7,00.0,32.1,25.0,07.9,0003.7,0006.72,0013.06,0005.54
2022-11-14 23:31:00,,0825.8,5.00,0.00,23.1,21.8,00.0,32.1,25.0,07.9,0003.1,0006.18,0011.77,0005.24
2022-11-14 23:32:00,,0825.8,5.00,0.00,23.1,21.8,00.0,32.1,25.0,07.9,0001.4,0005.57,0011.06,0004.91
2022-11-14 23:33:00,,0825.8,5.00,0.00,23.1,21.8,00.0,32.1,25.0,07.9,0000.1,0005.23,0010.70,0004.69
2022-11-14 23:34:00,,0825.9,5.00,0.00,23.2,21.9,00.0,32.1,25.0,07.9,0000.0,0005.20,0010.70,0004.66
2022-11-14 23:35:00,,0825.9,4.99,0.00,23.2,21.9,00.0,32.1,25.0,07.9,0000.0,0005.20,0010.42,0004.65
2022-11-14 23:36:00,,0826.3,5.00,0.00,23.2,21.9,00.0,32.1,25.0,07.9,0000.0,0005.18,0010.09,0004.64
2022-11-14 23:37:00,,0826.2,5.00,0.00,23.2,21.9,00.0,32.1,25.0,07.9,0000.0,0005.40,0010.78,0004.76
2022-11-14 23:38:00,,0826.0,5.01,0.00,23.2,21.9,00.0,32.1,25.0,07.9,0002.5,0005.51,0010.65,0004.86
2022-11-14 23:39:00,,0826.0,5.01,0.00,23.2,21.9,00.0,32.1,25.0,07.9,0001.1,0005.45,0010.39,0004.84
2022-11-14 23:40:00,,0825.8,5.01,0.00,23.2,21.9,00.0,32.1,25.0,07.9,0000.0,0005.53,0010.58,0004.87
2022-11-14 23:41:00,,0825.8,5.00,0.00,23.2,21.9,00.0,32.1,25.1,07.9,0000.0,0005.66,0010.88,0004.94
2022-11-14 23:42:00,,0825.9,4.99,0.00,23.2,22.0,00.0,32.1,25.1,07.9,0000.0,0005.68,0010.94,0004.96
2022-11-14 23:43:00,,0825.9,5.00,0.00,23.2,22.0,00.0,32.1,25.1,07.9,0000.0,0005.68,0010.66,0004.96
2022-11-14 23:44:00,,0826.0,5.00,0.00,23.2,22.0,00.0,32.1,25.1,07.9,0000.0,0005.68,0010.21,0004.96
2022-11-14 23:45:00,,0825.9,5.00,0.00,23.2,22.0,00.0,32.1,25.1,07.9,0000.0,0005.69,0010.19,0004.98
2022-11-14 23:46:00,,0825.9,5.02,0.00,23.2,22.0,00.0,32.1,25.1,07.9,0000.0,0005.76,0010.31,0005.01
2022-11-14 23:47:00,,0825.9,4.99,0.00,23.2,22.0,00.0,32.1,25.1,07.9,0000.0,0005.79,0010.83,0005.04
2022-11-14 23:48:00,,0826.0,5.00,0.00,23.2,22.0,00.0,32.1,25.1,07.9,0000.0,0005.56,0010.14,0004.95
2022-11-14 23:49:00,,0825.9,4.99,0.00,23.2,21.9,00.0,32.1,25.1,07.9,0000.0,0005.44,0010.44,0004.86
2022-11-14 23:50:00,,0826.0,5.01,0.00,23.2,22.0,00.0,32.1,25.1,07.9,0000.0,0005.51,0010.73,0004.89
2022-11-14 23:51:00,,0826.0,5.01,0.00,23.2,21.9,00.0,32.1,25.1,08.0,0000.0,0005.44,0010.56,0004.87
2022-11-14 23:52:00,,0826.0,4.98,0.00,23.2,21.9,00.0,32.1,25.1,08.0,0000.0,0005.34,0010.33,0004.82
2022-11-14 23:53:00,,0826.0,5.01,0.00,23.2,21.9,00.0,32.1,25.1,08.0,0000.0,0005.36,0010.35,0004.83
2022-11-14 23:54:00,,0825.9,5.00,0.00,23.2,21.9,00.0,32.1,25.1,08.0,0000.0,0005.38,0010.24,0004.85
2022-11-14 23:55:00,,0826.0,5.00,0.00,23.2,21.9,00.0,32.1,25.1,08.0,0000.0,0005.40,0010.31,0004.86
2022-11-14 23:56:00,,0826.0,4.99,0.00,23.2,21.9,00.0,32.1,25.1,08.0,0000.0,0005.42,0010.64,0004.86
2022-11-14 23:57:00,,0826.0,4.99,0.00,23.2,21.9,00.0,32.1,25.1,07.9,0000.0,0005.36,0010.68,0004.86
2022-11-14 23:58:00,,0826.0,5.02,0.00,23.2,21.9,00.0,32.1,25.1,07.9,0000.0,0005.37,0010.22,0004.85
2022-11-14 23:59:00,,0826.0,5.00,0.00,23.3,21.9,00.0,32.1,25.1,07.9,0000.0,0005.39,0010.10,0004.85
